Simultaneous Nadir Overpasses (SNOs) Predictions

Prediction of SNOs between METOP-A and NOAA-19 Satellite Orbit:

Table of predicted SNOs for the next 14.0 days since TLE Epoch: 12/30/2011
Index Date Time (METOP-A) METOP-A Lat,Lon NOAA-19 Lat,Lon Distance(km) Time Diff (sec)
1 12/30/2011 22:22:58 75.29,-157.82 75.29,-168.78 309.00 39
2 12/30/2011 23:13:55 -74.54, 7.39 -74.53, 0.68 199.01 55
3 12/31/2011 00:04:58 73.42, 171.97 73.48, 170.53 45.89 71
4 12/31/2011 00:55:46 -73.10, -21.42 -73.09, -21.32 3.46 70
5 12/31/2011 01:46:26 73.11, 145.92 73.10, 145.87 1.86 41
6 12/31/2011 02:37:08 -73.08, -46.80 -73.06, -46.78 2.22 27
7 12/31/2011 03:27:49 73.04, 120.44 73.03, 120.52 2.85 0
8 12/31/2011 04:18:31 -73.02, -72.28 -73.03, -72.24 2.40 15
9 12/31/2011 05:09:11 73.02, 95.07 73.00, 95.06 2.90 43
10 12/31/2011 05:59:53 -73.00, -97.65 -73.00, -97.70 1.44 58
11 12/31/2011 06:50:42 72.55, 68.74 72.57, 70.45 56.97 69
12 12/31/2011 07:41:35 -71.97,-125.07 -72.02,-121.20 133.08 62
13 12/31/2011 08:32:42 70.56, 39.82 70.59, 48.57 323.28 36
14 01/09/2012 18:02:40 -75.68, 88.46 -75.69, 75.03 368.33 29
15 01/09/2012 18:53:47 74.40,-107.93 74.39,-113.92 179.13 57
16 01/09/2012 19:44:43 -73.69, 57.66 -73.72, 55.03 82.01 68
17 01/09/2012 20:35:35 73.09,-136.38 73.09,-136.28 3.16 66
18 01/09/2012 21:26:17 -73.08, 30.93 -73.10, 30.94 2.56 49
19 01/09/2012 22:16:57 73.07,-161.75 73.06,-161.74 1.55 23
20 01/09/2012 23:07:39 -73.06, 5.56 -73.07, 5.48 2.70 6
21 01/09/2012 23:58:20 73.00, 172.76 73.03, 172.80 3.04 19
22 01/10/2012 00:49:02 -73.00, -19.93 -72.99, -19.87 1.88 35
23 01/10/2012 01:39:42 72.99, 147.39 73.00, 147.34 2.13 62
24 01/10/2012 02:30:27 -72.83, -45.62 -72.87, -45.11 17.17 73
25 01/10/2012 03:21:28 71.74, 119.58 71.81, 124.24 162.03 58




NCC Satellite Simultaneous Nadir Overpasses (SNOs) Prediction Service
